Location: Fargo
(46.8667°N, 96.7833°W)
Time: 10:33:44
(UTC-05:00)

ISS - Visible Passes

Search period start: 19 October 2019 00:00
Search period end: 29 October 2019 00:00
Orbit: 411 x 421 km, 51.6° (Epoch: 19 October)

Date Brightness Start Highest point End Pass type
(mag) Time Alt. Az. Time Alt. Az. Time Alt. Az.
23 Oct -0.5 06:48:27 10° SSE 06:49:30 11° SE 06:50:32 10° ESE visible
25 Oct -1.7 06:45:45 10° SSW 06:48:37 26° SE 06:51:28 10° E visible
26 Oct -1.1 05:58:23 12° S 06:00:09 17° SE 06:02:22 10° E visible
27 Oct -3.3 06:45:16 15° SW 06:47:52 59° SSE 06:51:12 10° ENE visible
28 Oct -2.6 05:59:03 37° SSE 05:59:17 37° SE 06:02:26 10° ENE visible
